Content
SEND FEEDBACK

Canada Flag

VICTORIA, BRITISH COLUMBIA


Home > North America > Canada > British Columbia
Elevation: 62 feet     Latitude: 48 39N     Longitude: 123 26W

WEATHER
 
SELECT A DAY
Number of Records: 215,128;   Date Range: 1/1/95 - 3/22/16
 
SHARE

PRINT THIS DATA

[ ← Previous Day ]
WEATHER ALMANAC - SEPTEMBER 14, 2013
[ Next Day → ]
[ °C ]   °F
Weather ElementAverageHighLow
Temperature57.5 °F66.2 °F (1:00 pm)53 °F (11:00 pm)
Dewpoint55.7 °F59 °F (1:00 pm)51.8 °F (11:00 pm)
Humidity93.8 %100 % (12:18 am)71 % (5:00 pm)
Barometer29.86 in29.90 in (12:38 am)29.77 in (7:00 pm)
Wind Speed3.1 mph8.1 mph (6:00 pm)
Weather ElementAverage
Visibility11.2 mi
Wind DirectionESE (104.9 °)

Weather ElementTotal
Precipitation---
Heating Degree Days5.4 (Base 65)
Growing Degree Days9.6 (Base 50)
Averaged from 37 records on September 14, 2013
WEATHER CONDITIONS BREAKOUT
WIND DIRECTION BREAKOUT
WEATHER BY HOUR - SEPTEMBER 14, 2013
[ °C ]   °F
Local TimeTemperatureDewpointHumidityBarometerVisibilityWind DirectionWind SpeedGust SpeedPrecipitationEventsConditions
12:18 AM53.6 °F53.6 °F100 %29.89 in0.5 miNNE (20°)3.5 mphFogPatches of Fog
12:32 AM53.6 °F53.6 °F100 %29.89 in0.5 miNNE (20°)3.5 mphFogFog
12:38 AM53.6 °F53.6 °F100 %29.90 in0.2 miNorth (10°)2.3 mphFogFog
1:00 AM53.6 °F53.6 °F100 %29.89 in0.2 miCalmFogFog
2:00 AM53.6 °F53.6 °F100 %29.89 in0.1 miCalmFogFog
3:00 AM53.6 °F53.6 °F100 %29.89 in0.0 miWNW (300°)3.5 mphFogFog
4:00 AM53.6 °F53.6 °F100 %29.90 in0.2 miNW (320°)2.3 mphFogFog
5:00 AM54.0 °F54.0 °F100 %29.89 in0.0 miWest (260°)1.2 mphFogHeavy Fog
5:00 AM55.4 °F55.4 °F100 %29.89 in0.1 miWSW (250°)2.3 mphFogFog
6:00 AM55.4 °F55.4 °F100 %29.89 in0.0 miCalmFogFog
6:14 AM55.4 °F55.4 °F100 %29.88 in0.2 miCalmFogFog
7:00 AM53.6 °F53.6 °F100 %29.89 in0.1 miCalmFogFog
8:00 AM55.4 °F55.4 °F100 %29.89 in0.2 miSW (230°)2.3 mphFogFog
8:11 AM55.4 °F55.4 °F100 %29.89 in0.4 miWest (270°)2.3 mphFogLight Drizzle
9:00 AM55.4 °F55.4 °F100 %29.90 in0.5 miCalmFogLight Drizzle
9:17 AM57.2 °F57.2 °F100 %29.89 in0.8 miVariable2.3 mphLight Drizzle
9:46 AM57.2 °F57.2 °F100 %29.89 in1.0 miVariable2.3 mphOvercast
10:00 AM57.2 °F57.2 °F100 %29.89 in1.0 miVariable2.3 mphOvercast
10:19 AM57.2 °F57.2 °F100 %29.89 in2.0 miENE (60°)4.6 mphOvercast
10:44 AM59.0 °F57.2 °F94 %29.89 in4.0 miCalmOvercast
11:00 AM59.0 °F57.0 °F90 %29.89 in5.0 miWNW (300°)2.3 mphMist
11:00 AM59.0 °F57.2 °F94 %29.89 in5.0 miVariable2.3 mphOvercast
11:29 AM60.8 °F57.2 °F88 %29.88 in10.0 miWNW (300°)4.6 mphMostly Cloudy
12:00 PM60.8 °F57.2 °F88 %29.88 in15.0 miWest (280°)5.8 mphMostly Cloudy
1:00 PM66.2 °F59.0 °F78 %29.87 in30.0 miVariable2.3 mphMostly Cloudy
2:00 PM64.4 °F57.2 °F77 %29.84 in30.0 miEast (80°)6.9 mphPartly Cloudy
3:00 PM64.4 °F59.0 °F83 %29.83 in30.0 miESE (110°)5.8 mphPartly Cloudy
4:00 PM64.4 °F59.0 °F83 %29.81 in30.0 miEast (100°)4.6 mphPartly Cloudy
5:00 PM66.2 °F59.0 °F78 %29.79 in30.0 miEast (100°)5.8 mphPartly Cloudy
5:00 PM66.0 °F59.0 °F71 %29.79 in28.0 miESE (120°)5.8 mphClear
6:00 PM62.6 °F57.2 °F82 %29.78 in30.0 miESE (120°)8.1 mphPartly Cloudy
7:00 PM59.0 °F55.4 °F88 %29.77 in30.0 miESE (120°)5.8 mphPartly Cloudy
8:00 PM57.2 °F55.4 °F94 %29.77 in30.0 miEast (100°)4.6 mphPartly Cloudy
9:00 PM55.4 °F53.6 °F94 %29.77 in30.0 miEast (100°)4.6 mphPartly Cloudy
10:00 PM53.6 °F53.6 °F100 %29.78 in30.0 miESE (120°)3.5 mphPartly Cloudy
11:00 PM53.0 °F52.0 °F94 %29.78 in19.0 miEast (100°)2.3 mph
11:00 PM53.6 °F51.8 °F94 %29.78 in20.0 miEast (90°)3.5 mphClear
Hourly data recorded from CYYJ, located miles away from Victoria, British Columbia




STORIES FROM OUR PARTNERS